Year,Month,Day,Hour,Minute,Value (Times are PST for temperature in C)
2016,05,01,00,00,11.70
2016,05,01,00,01,11.70
2016,05,01,00,02,11.70
2016,05,01,00,03,11.70
2016,05,01,00,04,11.70
2016,05,01,00,05,11.70
2016,05,01,00,06,11.60
2016,05,01,00,07,11.60
2016,05,01,00,08,11.60
2016,05,01,00,09,11.60
2016,05,01,00,10,11.60
2016,05,01,00,11,11.50
2016,05,01,00,12,11.50
2016,05,01,00,13,11.50
2016,05,01,00,14,11.40
2016,05,01,00,15,11.40
2016,05,01,00,16,11.40
2016,05,01,00,17,11.40
2016,05,01,00,18,11.40
2016,05,01,00,19,11.30
2016,05,01,00,20,11.30
2016,05,01,00,21,11.30
2016,05,01,00,22,11.30
2016,05,01,00,23,11.30
2016,05,01,00,24,11.30
2016,05,01,00,25,11.30
2016,05,01,00,26,11.20
2016,05,01,00,27,11.20
2016,05,01,00,28,11.20
2016,05,01,00,29,11.20
2016,05,01,00,30,11.20
2016,05,01,00,31,11.20
2016,05,01,00,32,11.20
2016,05,01,00,33,11.20
2016,05,01,00,34,11.10
2016,05,01,00,35,11.10
2016,05,01,00,36,11.10
2016,05,01,00,37,11.10
2016,05,01,00,38,11.10
2016,05,01,00,39,11.10
2016,05,01,00,40,11.10
2016,05,01,00,41,11.10
2016,05,01,00,42,11.10
2016,05,01,00,43,11.10
2016,05,01,00,44,11.00
2016,05,01,00,45,11.00
2016,05,01,00,46,11.00
2016,05,01,00,47,11.00
2016,05,01,00,48,11.00
2016,05,01,00,49,11.00
2016,05,01,00,50,11.00
2016,05,01,00,51,11.00
2016,05,01,00,52,10.90
2016,05,01,00,53,10.90
2016,05,01,00,54,10.90
2016,05,01,00,55,10.90
2016,05,01,00,56,10.90
2016,05,01,00,57,10.90
2016,05,01,00,58,10.90
2016,05,01,00,59,11.00
2016,05,01,01,00,11.00
2016,05,01,01,01,11.00
2016,05,01,01,02,11.00
2016,05,01,01,03,11.00
2016,05,01,01,04,11.00
2016,05,01,01,05,11.00
2016,05,01,01,06,11.00
2016,05,01,01,07,11.00
2016,05,01,01,08,10.90
2016,05,01,01,09,10.90
2016,05,01,01,10,10.90
2016,05,01,01,11,10.90
2016,05,01,01,12,10.90
2016,05,01,01,13,10.90
2016,05,01,01,14,10.80
2016,05,01,01,15,10.80
2016,05,01,01,16,10.80
2016,05,01,01,17,10.80
2016,05,01,01,18,10.80
2016,05,01,01,19,10.80
2016,05,01,01,20,10.80
2016,05,01,01,21,10.70
2016,05,01,01,22,10.70
2016,05,01,01,23,10.70
2016,05,01,01,24,10.70
2016,05,01,01,25,10.70
2016,05,01,01,26,10.70
2016,05,01,01,27,10.70
2016,05,01,01,28,10.70
2016,05,01,01,29,10.60
2016,05,01,01,30,10.60
2016,05,01,01,31,10.60
2016,05,01,01,32,10.60
2016,05,01,01,33,10.60
2016,05,01,01,34,10.60
2016,05,01,01,35,10.60
2016,05,01,01,36,10.60
2016,05,01,01,37,10.60
2016,05,01,01,38,10.60
2016,05,01,01,39,10.60
2016,05,01,01,40,10.50
2016,05,01,01,41,10.50
2016,05,01,01,42,10.50
2016,05,01,01,43,10.50
2016,05,01,01,44,10.50
2016,05,01,01,45,10.50
2016,05,01,01,46,10.40
2016,05,01,01,47,10.40
2016,05,01,01,48,10.40
2016,05,01,01,49,10.40
2016,05,01,01,50,10.40
2016,05,01,01,51,10.40
2016,05,01,01,52,10.40
2016,05,01,01,53,10.40
2016,05,01,01,54,10.30
2016,05,01,01,55,10.30
2016,05,01,01,56,10.30
2016,05,01,01,57,10.30
2016,05,01,01,58,10.30
2016,05,01,01,59,10.40
2016,05,01,02,00,10.40
2016,05,01,02,01,10.40
2016,05,01,02,02,10.40
2016,05,01,02,03,10.40
2016,05,01,02,04,10.40
2016,05,01,02,05,10.40
2016,05,01,02,06,10.40
2016,05,01,02,07,10.40
2016,05,01,02,08,10.40
2016,05,01,02,09,10.40
2016,05,01,02,10,10.40
2016,05,01,02,11,10.30
2016,05,01,02,12,10.30
2016,05,01,02,13,10.30
2016,05,01,02,14,10.30
2016,05,01,02,15,10.30
2016,05,01,02,16,10.30
2016,05,01,02,17,10.30
2016,05,01,02,18,10.30
2016,05,01,02,19,10.30
2016,05,01,02,20,10.20
2016,05,01,02,21,10.20
2016,05,01,02,22,10.20
2016,05,01,02,23,10.20
2016,05,01,02,24,10.20
2016,05,01,02,25,10.20
2016,05,01,02,26,10.20
2016,05,01,02,27,10.20
2016,05,01,02,28,10.20
2016,05,01,02,29,10.20
2016,05,01,02,30,10.20
2016,05,01,02,31,10.20
2016,05,01,02,32,10.20
2016,05,01,02,33,10.20
2016,05,01,02,34,10.20
2016,05,01,02,35,10.10
2016,05,01,02,36,10.20
2016,05,01,02,37,10.10
2016,05,01,02,38,10.10
2016,05,01,02,39,10.10
2016,05,01,02,40,10.10
2016,05,01,02,41,10.10
2016,05,01,02,42,10.10
2016,05,01,02,43,10.00
2016,05,01,02,44,10.00
2016,05,01,02,45,9.90
2016,05,01,02,46,9.90
2016,05,01,02,47,9.90
2016,05,01,02,48,9.90
2016,05,01,02,49,9.90
2016,05,01,02,50,9.90
2016,05,01,02,51,9.90
2016,05,01,02,52,9.90
2016,05,01,02,53,9.90
2016,05,01,02,54,9.90
2016,05,01,02,55,9.90
2016,05,01,02,56,9.90
2016,05,01,02,57,9.90
2016,05,01,02,58,9.90
2016,05,01,02,59,9.90
2016,05,01,03,00,9.90
2016,05,01,03,01,9.80
2016,05,01,03,02,9.80
2016,05,01,03,03,9.80
2016,05,01,03,04,9.80
2016,05,01,03,05,9.80
2016,05,01,03,06,9.80
2016,05,01,03,07,9.80
2016,05,01,03,08,9.80
2016,05,01,03,09,9.80
2016,05,01,03,10,9.80
2016,05,01,03,11,9.80
2016,05,01,03,12,9.80
2016,05,01,03,13,9.80
2016,05,01,03,14,9.80
2016,05,01,03,15,9.80
2016,05,01,03,16,9.80
2016,05,01,03,17,9.80
2016,05,01,03,18,9.80
2016,05,01,03,19,9.80
2016,05,01,03,20,9.70
2016,05,01,03,21,9.70
2016,05,01,03,22,9.70
2016,05,01,03,23,9.70
2016,05,01,03,24,9.70
2016,05,01,03,25,9.70
2016,05,01,03,26,9.70
2016,05,01,03,27,9.70
2016,05,01,03,28,9.70
2016,05,01,03,29,9.80
2016,05,01,03,30,9.70
2016,05,01,03,31,9.80
2016,05,01,03,32,9.80
2016,05,01,03,33,9.80
2016,05,01,03,34,9.80
2016,05,01,03,35,9.80
2016,05,01,03,36,9.70
2016,05,01,03,37,9.70
2016,05,01,03,38,9.70
2016,05,01,03,39,9.70
2016,05,01,03,40,9.70
2016,05,01,03,41,9.60
2016,05,01,03,42,9.60
2016,05,01,03,43,9.60
2016,05,01,03,44,9.60
2016,05,01,03,45,9.60
2016,05,01,03,46,9.60
2016,05,01,03,47,9.60
2016,05,01,03,48,9.50
2016,05,01,03,49,9.50
2016,05,01,03,50,9.50
2016,05,01,03,51,9.50
2016,05,01,03,52,9.40
2016,05,01,03,53,9.40
2016,05,01,03,54,9.50
2016,05,01,03,55,9.40
2016,05,01,03,56,9.40
2016,05,01,03,57,9.40
2016,05,01,03,58,9.40
2016,05,01,03,59,9.40
2016,05,01,04,00,9.40
2016,05,01,04,01,9.40
2016,05,01,04,02,9.40
2016,05,01,04,03,9.30
2016,05,01,04,04,9.30
2016,05,01,04,05,9.30
2016,05,01,04,06,9.30
2016,05,01,04,07,9.30
2016,05,01,04,08,9.30
2016,05,01,04,09,9.30
2016,05,01,04,10,9.30
2016,05,01,04,11,9.30
2016,05,01,04,12,9.30
2016,05,01,04,13,9.30
2016,05,01,04,14,9.20
2016,05,01,04,15,9.20
2016,05,01,04,16,9.20
2016,05,01,04,17,9.20
2016,05,01,04,18,9.20
2016,05,01,04,19,9.20
2016,05,01,04,20,9.20
2016,05,01,04,21,9.20
2016,05,01,04,22,9.20
2016,05,01,04,23,9.10
2016,05,01,04,24,9.10
2016,05,01,04,25,9.10
2016,05,01,04,26,9.10
2016,05,01,04,27,9.10
2016,05,01,04,28,9.20
2016,05,01,04,29,9.20
2016,05,01,04,30,9.20
2016,05,01,04,31,9.20
2016,05,01,04,32,9.20
2016,05,01,04,33,9.20
2016,05,01,04,34,9.20
2016,05,01,04,35,9.20
2016,05,01,04,36,9.20
2016,05,01,04,37,9.20
2016,05,01,04,38,9.10
2016,05,01,04,39,9.10
2016,05,01,04,40,9.10
2016,05,01,04,41,9.10
2016,05,01,04,42,9.00
2016,05,01,04,43,9.00
2016,05,01,04,44,9.00
2016,05,01,04,45,9.00
2016,05,01,04,46,9.00
2016,05,01,04,47,8.90
2016,05,01,04,48,8.90
2016,05,01,04,49,8.90
2016,05,01,04,50,8.90
2016,05,01,04,51,8.90
2016,05,01,04,52,8.90
2016,05,01,04,53,8.90
2016,05,01,04,54,8.90
2016,05,01,04,55,8.90
2016,05,01,04,56,8.90
2016,05,01,04,57,8.80
2016,05,01,04,58,8.80
2016,05,01,04,59,8.80
2016,05,01,05,00,8.80
2016,05,01,05,01,8.70
2016,05,01,05,02,8.70
2016,05,01,05,03,8.70
2016,05,01,05,04,8.70
2016,05,01,05,05,8.70
2016,05,01,05,06,8.60
2016,05,01,05,07,8.60
2016,05,01,05,08,8.60
2016,05,01,05,09,8.60
2016,05,01,05,10,8.60
2016,05,01,05,11,8.60
2016,05,01,05,12,8.60
2016,05,01,05,13,8.60
2016,05,01,05,14,8.60
2016,05,01,05,15,8.60
2016,05,01,05,16,8.60
2016,05,01,05,17,8.50
2016,05,01,05,18,8.50
2016,05,01,05,19,8.50
2016,05,01,05,20,8.50
2016,05,01,05,21,8.40
2016,05,01,05,22,8.40
2016,05,01,05,23,8.40
2016,05,01,05,24,8.40
2016,05,01,05,25,8.40
2016,05,01,05,26,8.40
2016,05,01,05,27,8.40
2016,05,01,05,28,8.40
2016,05,01,05,29,8.40
2016,05,01,05,30,8.50
2016,05,01,05,31,8.50
2016,05,01,05,32,8.50
2016,05,01,05,33,8.50
2016,05,01,05,34,8.60
2016,05,01,05,35,8.60
2016,05,01,05,36,8.60
2016,05,01,05,37,8.60
2016,05,01,05,38,8.60
2016,05,01,05,39,8.60
2016,05,01,05,40,8.60
2016,05,01,05,41,8.60
2016,05,01,05,42,8.60
2016,05,01,05,43,8.70
2016,05,01,05,44,8.70
2016,05,01,05,45,8.70
2016,05,01,05,46,8.70
2016,05,01,05,47,8.70
2016,05,01,05,48,8.70
2016,05,01,05,49,8.70
2016,05,01,05,50,8.80
2016,05,01,05,51,8.80
2016,05,01,05,52,8.80
2016,05,01,05,53,8.80
2016,05,01,05,54,8.80
2016,05,01,05,55,8.80
2016,05,01,05,56,8.70
2016,05,01,05,57,8.70
2016,05,01,05,58,8.70
2016,05,01,05,59,8.70
2016,05,01,06,00,8.70
2016,05,01,06,01,8.70
2016,05,01,06,02,8.70
2016,05,01,06,03,8.70
2016,05,01,06,04,8.70
2016,05,01,06,05,8.70
2016,05,01,06,06,8.70
2016,05,01,06,07,8.70
2016,05,01,06,08,8.70
2016,05,01,06,09,8.70
2016,05,01,06,10,8.70
2016,05,01,06,11,8.70
2016,05,01,06,12,8.70
2016,05,01,06,13,8.70
2016,05,01,06,14,8.70
2016,05,01,06,15,8.70
2016,05,01,06,16,8.60
2016,05,01,06,17,8.60
2016,05,01,06,18,8.60
2016,05,01,06,19,8.60
2016,05,01,06,20,8.60
2016,05,01,06,21,8.60
2016,05,01,06,22,8.60
2016,05,01,06,23,8.60
2016,05,01,06,24,8.70
2016,05,01,06,25,8.70
2016,05,01,06,26,8.70
2016,05,01,06,27,8.70
2016,05,01,06,28,8.70
2016,05,01,06,29,8.70
2016,05,01,06,30,8.70
2016,05,01,06,31,8.70
2016,05,01,06,32,8.70
2016,05,01,06,33,8.80
2016,05,01,06,34,8.80
2016,05,01,06,35,8.80
2016,05,01,06,36,8.80
2016,05,01,06,37,8.80
2016,05,01,06,38,8.80
2016,05,01,06,39,8.80
2016,05,01,06,40,8.80
2016,05,01,06,41,8.80
2016,05,01,06,42,8.80
2016,05,01,06,43,8.80
2016,05,01,06,44,8.80
2016,05,01,06,45,8.80
2016,05,01,06,46,8.80
2016,05,01,06,47,8.80
2016,05,01,06,48,8.80
2016,05,01,06,49,8.90
2016,05,01,06,50,8.90
2016,05,01,06,51,8.90
2016,05,01,06,52,8.90
2016,05,01,06,53,8.90
2016,05,01,06,54,9.00
2016,05,01,06,55,9.00
2016,05,01,06,56,9.00
2016,05,01,06,57,9.00
2016,05,01,06,58,9.00
2016,05,01,06,59,9.10
2016,05,01,07,00,9.10
2016,05,01,07,01,9.10
2016,05,01,07,02,9.10
2016,05,01,07,03,9.10
2016,05,01,07,04,9.10
2016,05,01,07,05,9.20
2016,05,01,07,06,9.20
2016,05,01,07,07,9.20
2016,05,01,07,08,9.20
2016,05,01,07,09,9.20
2016,05,01,07,10,9.20
2016,05,01,07,11,9.30
2016,05,01,07,12,9.30
2016,05,01,07,13,9.30
2016,05,01,07,14,9.30
2016,05,01,07,15,9.30
2016,05,01,07,16,9.40
2016,05,01,07,17,9.40
2016,05,01,07,18,9.40
2016,05,01,07,19,9.50
2016,05,01,07,20,9.50
2016,05,01,07,21,9.60
2016,05,01,07,22,9.60
2016,05,01,07,23,9.60
2016,05,01,07,24,9.60
2016,05,01,07,25,9.70
2016,05,01,07,26,9.70
2016,05,01,07,27,9.70
2016,05,01,07,28,9.80
2016,05,01,07,29,9.80
2016,05,01,07,30,9.80
2016,05,01,07,31,9.90
2016,05,01,07,32,9.90
2016,05,01,07,33,9.90
2016,05,01,07,34,10.00
2016,05,01,07,35,10.10
2016,05,01,07,36,10.10
2016,05,01,07,37,10.10
2016,05,01,07,38,10.20
2016,05,01,07,39,10.20
2016,05,01,07,40,10.30
2016,05,01,07,41,10.30
2016,05,01,07,42,10.40
2016,05,01,07,43,10.50
2016,05,01,07,44,10.60
2016,05,01,07,45,10.60
2016,05,01,07,46,10.70
2016,05,01,07,47,10.80
2016,05,01,07,48,10.90
2016,05,01,07,49,11.00
2016,05,01,07,50,11.00
2016,05,01,07,51,11.10
2016,05,01,07,52,11.20
2016,05,01,07,53,11.30
2016,05,01,07,54,11.40
2016,05,01,07,55,11.50
2016,05,01,07,56,11.50
2016,05,01,07,57,11.60
2016,05,01,07,58,11.70
2016,05,01,07,59,11.80
2016,05,01,08,00,11.90
2016,05,01,08,01,11.90
2016,05,01,08,02,12.00
2016,05,01,08,03,12.10
2016,05,01,08,04,12.20
2016,05,01,08,05,12.30
2016,05,01,08,06,12.40
2016,05,01,08,07,12.50
2016,05,01,08,08,12.50
2016,05,01,08,09,12.60
2016,05,01,08,10,12.70
2016,05,01,08,11,12.80
2016,05,01,08,12,12.90
2016,05,01,08,13,13.00
2016,05,01,08,14,13.00
2016,05,01,08,15,13.10
2016,05,01,08,16,13.20
2016,05,01,08,17,13.30
2016,05,01,08,18,13.30
2016,05,01,08,19,13.40
2016,05,01,08,20,13.50
2016,05,01,08,21,13.60
2016,05,01,08,22,13.70
2016,05,01,08,23,13.80
2016,05,01,08,24,13.90
2016,05,01,08,25,13.90
2016,05,01,08,26,14.00
2016,05,01,08,27,14.10
2016,05,01,08,28,14.10
2016,05,01,08,29,14.20
2016,05,01,08,30,14.20
2016,05,01,08,31,14.20
2016,05,01,08,32,14.30
2016,05,01,08,33,14.30
2016,05,01,08,34,14.30
2016,05,01,08,35,14.30
2016,05,01,08,36,14.40
2016,05,01,08,37,14.40
2016,05,01,08,38,14.40
2016,05,01,08,39,14.50
2016,05,01,08,40,14.50
2016,05,01,08,41,14.60
2016,05,01,08,42,14.60
2016,05,01,08,43,14.60
2016,05,01,08,44,14.60
2016,05,01,08,45,14.70
2016,05,01,08,46,14.70
2016,05,01,08,47,14.70
2016,05,01,08,48,14.70
2016,05,01,08,49,14.70
2016,05,01,08,50,14.70
2016,05,01,08,51,14.70
2016,05,01,08,52,14.70
2016,05,01,08,53,14.70
2016,05,01,08,54,14.70
2016,05,01,08,55,14.70
2016,05,01,08,56,14.70
2016,05,01,08,57,14.70
2016,05,01,08,58,14.70
2016,05,01,08,59,14.80
2016,05,01,09,00,14.80
2016,05,01,09,01,14.80
2016,05,01,09,02,14.80
2016,05,01,09,03,14.80
2016,05,01,09,04,14.80
2016,05,01,09,05,14.80
2016,05,01,09,06,14.80
2016,05,01,09,07,14.80
2016,05,01,09,08,14.90
2016,05,01,09,09,14.90
2016,05,01,09,10,14.90
2016,05,01,09,11,15.00
2016,05,01,09,12,15.00
2016,05,01,09,13,15.00
2016,05,01,09,14,15.00
2016,05,01,09,15,15.00
2016,05,01,09,16,15.00
2016,05,01,09,17,15.10
2016,05,01,09,18,15.00
2016,05,01,09,19,15.00
2016,05,01,09,20,15.00
2016,05,01,09,21,15.00
2016,05,01,09,22,15.00
2016,05,01,09,23,15.00
2016,05,01,09,24,15.00
2016,05,01,09,25,15.10
2016,05,01,09,26,15.10
2016,05,01,09,27,15.10
2016,05,01,09,28,15.10
2016,05,01,09,29,15.10
2016,05,01,09,30,15.10
2016,05,01,09,31,15.10
2016,05,01,09,32,15.10
2016,05,01,09,33,15.10
2016,05,01,09,34,15.10
2016,05,01,09,35,15.10
2016,05,01,09,36,15.20
2016,05,01,09,37,15.20
2016,05,01,09,38,15.20
2016,05,01,09,39,15.20
2016,05,01,09,40,15.20
2016,05,01,09,41,15.20
2016,05,01,09,42,15.30
2016,05,01,09,43,15.30
2016,05,01,09,44,15.30
2016,05,01,09,45,15.30
2016,05,01,09,46,15.40
2016,05,01,09,47,15.40
2016,05,01,09,48,15.40
2016,05,01,09,49,15.50
2016,05,01,09,50,15.50
2016,05,01,09,51,15.60
2016,05,01,09,52,15.60
2016,05,01,09,53,15.60
2016,05,01,09,54,15.70
2016,05,01,09,55,15.70
2016,05,01,09,56,15.70
2016,05,01,09,57,15.70
2016,05,01,09,58,15.70
2016,05,01,09,59,15.80
2016,05,01,10,00,15.80
2016,05,01,10,01,15.80
2016,05,01,10,02,15.80
2016,05,01,10,03,15.80
2016,05,01,10,04,15.90
2016,05,01,10,05,15.90
2016,05,01,10,06,15.90
2016,05,01,10,07,16.00
2016,05,01,10,08,16.00
2016,05,01,10,09,16.10
2016,05,01,10,10,16.10
2016,05,01,10,11,16.10
2016,05,01,10,12,16.20
2016,05,01,10,13,16.20
2016,05,01,10,14,16.20
2016,05,01,10,15,16.20
2016,05,01,10,16,16.30
2016,05,01,10,17,16.30
2016,05,01,10,18,16.30
2016,05,01,10,19,16.40
2016,05,01,10,20,16.40
2016,05,01,10,21,16.40
2016,05,01,10,22,16.40
2016,05,01,10,23,16.40
2016,05,01,10,24,16.50
2016,05,01,10,25,16.50
2016,05,01,10,26,16.50
2016,05,01,10,27,16.50
2016,05,01,10,28,16.60
2016,05,01,10,29,16.60
2016,05,01,10,30,16.60
2016,05,01,10,31,16.60
2016,05,01,10,32,16.60
2016,05,01,10,33,16.70
2016,05,01,10,34,16.70
2016,05,01,10,35,16.60
2016,05,01,10,36,16.60
2016,05,01,10,37,16.60
2016,05,01,10,38,16.50
2016,05,01,10,39,16.50
2016,05,01,10,40,16.50
2016,05,01,10,41,16.50
2016,05,01,10,42,16.50
2016,05,01,10,43,16.50
2016,05,01,10,44,16.50
2016,05,01,10,45,16.50
2016,05,01,10,46,16.50
2016,05,01,10,47,16.50
2016,05,01,10,48,16.60
2016,05,01,10,49,16.60
2016,05,01,10,50,16.60
2016,05,01,10,51,16.60
2016,05,01,10,52,16.60
2016,05,01,10,53,16.70
2016,05,01,10,54,16.70
2016,05,01,10,55,16.70
2016,05,01,10,56,16.70
2016,05,01,10,57,16.70
2016,05,01,10,58,16.70
2016,05,01,10,59,16.70
2016,05,01,11,00,16.70
2016,05,01,11,01,16.70
2016,05,01,11,02,16.70
2016,05,01,11,03,16.70
2016,05,01,11,04,16.80
2016,05,01,11,05,16.80
2016,05,01,11,06,16.80
2016,05,01,11,07,16.80
2016,05,01,11,08,16.80
2016,05,01,11,09,16.80
2016,05,01,11,10,16.80
2016,05,01,11,11,16.90
2016,05,01,11,12,16.90
2016,05,01,11,13,16.90
2016,05,01,11,14,16.90
2016,05,01,11,15,17.00
2016,05,01,11,16,17.00
2016,05,01,11,17,17.00
2016,05,01,11,18,17.00
2016,05,01,11,19,17.00
2016,05,01,11,20,17.10
2016,05,01,11,21,17.10
2016,05,01,11,22,17.10
2016,05,01,11,23,17.10
2016,05,01,11,24,17.20
2016,05,01,11,25,17.20
2016,05,01,11,26,17.20
2016,05,01,11,27,17.20
2016,05,01,11,28,17.30
2016,05,01,11,29,17.30
2016,05,01,11,30,17.30
2016,05,01,11,31,17.30
2016,05,01,11,32,17.30
2016,05,01,11,33,17.30
2016,05,01,11,34,17.40
2016,05,01,11,35,17.40
2016,05,01,11,36,17.40
2016,05,01,11,37,17.50
2016,05,01,11,38,17.50
2016,05,01,11,39,17.50
2016,05,01,11,40,17.60
2016,05,01,11,41,17.60
2016,05,01,11,42,17.60
2016,05,01,11,43,17.70
2016,05,01,11,44,17.70
2016,05,01,11,45,17.70
2016,05,01,11,46,17.70
2016,05,01,11,47,17.70
2016,05,01,11,48,17.70
2016,05,01,11,49,17.70
2016,05,01,11,50,17.70
2016,05,01,11,51,17.80
2016,05,01,11,52,17.80
2016,05,01,11,53,17.80
2016,05,01,11,54,17.80
2016,05,01,11,55,17.90
2016,05,01,11,56,17.90
2016,05,01,11,57,17.90
2016,05,01,11,58,17.90
2016,05,01,11,59,18.00
2016,05,01,12,00,18.00
2016,05,01,12,01,18.00
2016,05,01,12,02,18.00
2016,05,01,12,03,18.00
2016,05,01,12,04,18.00
2016,05,01,12,05,18.10
2016,05,01,12,06,18.10
2016,05,01,12,07,18.00
2016,05,01,12,08,18.10
2016,05,01,12,09,18.10
2016,05,01,12,10,18.10
2016,05,01,12,11,18.10
2016,05,01,12,12,18.10
2016,05,01,12,13,18.10
2016,05,01,12,14,18.10
2016,05,01,12,15,18.10
2016,05,01,12,16,18.10
2016,05,01,12,17,18.10
2016,05,01,12,18,18.10
2016,05,01,12,19,18.10
2016,05,01,12,20,18.20
2016,05,01,12,21,18.20
2016,05,01,12,22,18.20
2016,05,01,12,23,18.20
2016,05,01,12,24,18.20
2016,05,01,12,25,18.20
2016,05,01,12,26,18.20
2016,05,01,12,27,18.20
2016,05,01,12,28,18.20
2016,05,01,12,29,18.20
2016,05,01,12,30,18.20
2016,05,01,12,31,18.20
2016,05,01,12,32,18.20
2016,05,01,12,33,18.30
2016,05,01,12,34,18.30
2016,05,01,12,35,18.30
2016,05,01,12,36,18.30
2016,05,01,12,37,18.30
2016,05,01,12,38,18.40
2016,05,01,12,39,18.40
2016,05,01,12,40,18.40
2016,05,01,12,41,18.40
2016,05,01,12,42,18.40
2016,05,01,12,43,18.40
2016,05,01,12,44,18.40
2016,05,01,12,45,18.40
2016,05,01,12,46,18.40
2016,05,01,12,47,18.40
2016,05,01,12,48,18.50
2016,05,01,12,49,18.50
2016,05,01,12,50,18.50
2016,05,01,12,51,18.60
2016,05,01,12,52,18.60
2016,05,01,12,53,18.60
2016,05,01,12,54,18.70
2016,05,01,12,55,18.70
2016,05,01,12,56,18.80
2016,05,01,12,57,18.80
2016,05,01,12,58,18.70
2016,05,01,12,59,18.70
2016,05,01,13,00,18.70
2016,05,01,13,01,18.70
2016,05,01,13,02,18.70
2016,05,01,13,03,18.70
2016,05,01,13,04,18.70
2016,05,01,13,05,18.70
2016,05,01,13,06,18.70
2016,05,01,13,07,18.70
2016,05,01,13,08,18.70
2016,05,01,13,09,18.70
2016,05,01,13,10,18.80
2016,05,01,13,11,18.80
2016,05,01,13,12,18.90
2016,05,01,13,13,18.90
2016,05,01,13,14,19.00
2016,05,01,13,15,19.00
2016,05,01,13,16,18.90
2016,05,01,13,17,18.90
2016,05,01,13,18,18.90
2016,05,01,13,19,18.90
2016,05,01,13,20,18.90
2016,05,01,13,21,18.90
2016,05,01,13,22,18.90
2016,05,01,13,23,18.90
2016,05,01,13,24,19.00
2016,05,01,13,25,19.00
2016,05,01,13,26,19.10
2016,05,01,13,27,19.10
2016,05,01,13,28,19.20
2016,05,01,13,29,19.20
2016,05,01,13,30,19.20
2016,05,01,13,31,19.20
2016,05,01,13,32,19.20
2016,05,01,13,33,19.20
2016,05,01,13,34,19.20
2016,05,01,13,35,19.20
2016,05,01,13,36,19.20
2016,05,01,13,37,19.10
2016,05,01,13,38,19.10
2016,05,01,13,39,19.10
2016,05,01,13,40,19.10
2016,05,01,13,41,19.10
2016,05,01,13,42,19.10
2016,05,01,13,43,19.10
2016,05,01,13,44,19.10
2016,05,01,13,45,19.10
2016,05,01,13,46,19.10
2016,05,01,13,47,19.10
2016,05,01,13,48,19.10
2016,05,01,13,49,19.10
2016,05,01,13,50,19.10
2016,05,01,13,51,19.10
2016,05,01,13,52,19.00
2016,05,01,13,53,19.00
2016,05,01,13,54,19.00
2016,05,01,13,55,19.00
2016,05,01,13,56,18.90
2016,05,01,13,57,18.90
2016,05,01,13,58,19.00
2016,05,01,13,59,19.00
2016,05,01,14,00,19.10
2016,05,01,14,01,19.10
2016,05,01,14,02,19.10
2016,05,01,14,03,19.20
2016,05,01,14,04,19.20
2016,05,01,14,05,19.20
2016,05,01,14,06,19.30
2016,05,01,14,07,19.30
2016,05,01,14,08,19.30
2016,05,01,14,09,19.30
2016,05,01,14,10,19.30
2016,05,01,14,11,19.30
2016,05,01,14,12,19.30
2016,05,01,14,13,19.30
2016,05,01,14,14,19.40
2016,05,01,14,15,19.40
2016,05,01,14,16,19.40
2016,05,01,14,17,19.40
2016,05,01,14,18,19.40
2016,05,01,14,19,19.40
2016,05,01,14,20,19.50
2016,05,01,14,21,19.50
2016,05,01,14,22,19.60
2016,05,01,14,23,19.60
2016,05,01,14,24,19.60
2016,05,01,14,25,19.60
2016,05,01,14,26,19.60
2016,05,01,14,27,19.50
2016,05,01,14,28,19.50
2016,05,01,14,29,19.50
2016,05,01,14,30,19.60
2016,05,01,14,31,19.60
2016,05,01,14,32,19.60
2016,05,01,14,33,19.60
2016,05,01,14,34,19.60
2016,05,01,14,35,19.60
2016,05,01,14,36,19.70
2016,05,01,14,37,19.70
2016,05,01,14,38,19.70
2016,05,01,14,39,19.70
2016,05,01,14,40,19.70
2016,05,01,14,41,19.80
2016,05,01,14,42,19.80
2016,05,01,14,43,19.80
2016,05,01,14,44,19.90
2016,05,01,14,45,19.90
2016,05,01,14,46,19.90
2016,05,01,14,47,19.90
2016,05,01,14,48,20.00
2016,05,01,14,49,20.00
2016,05,01,14,50,20.10
2016,05,01,14,51,20.10
2016,05,01,14,52,20.10
2016,05,01,14,53,20.10
2016,05,01,14,54,20.10
2016,05,01,14,55,20.10
2016,05,01,14,56,20.10
2016,05,01,14,57,20.10
2016,05,01,14,58,20.20
2016,05,01,14,59,20.20
2016,05,01,15,00,20.20
2016,05,01,15,01,20.20
2016,05,01,15,02,20.20
2016,05,01,15,03,20.30
2016,05,01,15,04,20.30
2016,05,01,15,05,20.30
2016,05,01,15,06,20.40
2016,05,01,15,07,20.40
2016,05,01,15,08,20.40
2016,05,01,15,09,20.40
2016,05,01,15,10,20.40
2016,05,01,15,11,20.40
2016,05,01,15,12,20.40
2016,05,01,15,13,20.30
2016,05,01,15,14,20.30
2016,05,01,15,15,20.40
2016,05,01,15,16,20.40
2016,05,01,15,17,20.40
2016,05,01,15,18,20.50
2016,05,01,15,19,20.50
2016,05,01,15,20,20.60
2016,05,01,15,21,20.60
2016,05,01,15,22,20.60
2016,05,01,15,23,20.60
2016,05,01,15,24,20.60
2016,05,01,15,25,20.60
2016,05,01,15,26,20.60
2016,05,01,15,27,20.60
2016,05,01,15,28,20.60
2016,05,01,15,29,20.60
2016,05,01,15,30,20.60
2016,05,01,15,31,20.60
2016,05,01,15,32,20.60
2016,05,01,15,33,20.70
2016,05,01,15,34,20.70
2016,05,01,15,35,20.70
2016,05,01,15,36,20.80
2016,05,01,15,37,20.80
2016,05,01,15,38,20.80
2016,05,01,15,39,20.90
2016,05,01,15,40,20.90
2016,05,01,15,41,21.00
2016,05,01,15,42,21.00
2016,05,01,15,43,21.10
2016,05,01,15,44,21.10
2016,05,01,15,45,21.10
2016,05,01,15,46,21.10
2016,05,01,15,47,21.20
2016,05,01,15,48,21.20
2016,05,01,15,49,21.30
2016,05,01,15,50,21.30
2016,05,01,15,51,21.40
2016,05,01,15,52,21.50
2016,05,01,15,53,21.50
2016,05,01,15,54,21.50
2016,05,01,15,55,21.40
2016,05,01,15,56,21.40
2016,05,01,15,57,21.40
2016,05,01,15,58,21.40
2016,05,01,15,59,21.40
2016,05,01,16,00,21.40
2016,05,01,16,01,21.50
2016,05,01,16,02,21.50
2016,05,01,16,03,21.60
2016,05,01,16,04,21.60
2016,05,01,16,05,21.60
2016,05,01,16,06,21.60
2016,05,01,16,07,21.70
2016,05,01,16,08,21.80
2016,05,01,16,09,21.80
2016,05,01,16,10,21.90
2016,05,01,16,11,21.90
2016,05,01,16,12,21.90
2016,05,01,16,13,22.00
2016,05,01,16,14,22.00
2016,05,01,16,15,22.10
2016,05,01,16,16,22.10
2016,05,01,16,17,22.10
2016,05,01,16,18,22.20
2016,05,01,16,19,22.30
2016,05,01,16,20,22.30
2016,05,01,16,21,22.40
2016,05,01,16,22,22.50
2016,05,01,16,23,22.50
2016,05,01,16,24,22.60
2016,05,01,16,25,22.70
2016,05,01,16,26,22.70
2016,05,01,16,27,22.80
2016,05,01,16,28,22.80
2016,05,01,16,29,22.80
2016,05,01,16,30,22.80
2016,05,01,16,31,22.80
2016,05,01,16,32,22.80
2016,05,01,16,33,22.90
2016,05,01,16,34,22.90
2016,05,01,16,35,22.90
2016,05,01,16,36,23.00
2016,05,01,16,37,23.00
2016,05,01,16,38,23.10
2016,05,01,16,39,23.10
2016,05,01,16,40,23.10
2016,05,01,16,41,23.10
2016,05,01,16,42,23.10
2016,05,01,16,43,23.10
2016,05,01,16,44,23.10
2016,05,01,16,45,23.10
2016,05,01,16,46,23.10
2016,05,01,16,47,23.10
2016,05,01,16,48,23.10
2016,05,01,16,49,23.10
2016,05,01,16,50,23.20
2016,05,01,16,51,23.20
2016,05,01,16,52,23.20
2016,05,01,16,53,23.20
2016,05,01,16,54,23.20
2016,05,01,16,55,23.20
2016,05,01,16,56,23.20
2016,05,01,16,57,23.20
2016,05,01,16,58,23.20
2016,05,01,16,59,23.30
2016,05,01,17,00,23.30
2016,05,01,17,01,23.20
2016,05,01,17,02,23.20
2016,05,01,17,03,23.20
2016,05,01,17,04,23.20
2016,05,01,17,05,23.30
2016,05,01,17,06,23.30
2016,05,01,17,07,23.30
2016,05,01,17,08,23.30
2016,05,01,17,09,23.30
2016,05,01,17,10,23.30
2016,05,01,17,11,23.20
2016,05,01,17,12,23.20
2016,05,01,17,13,23.30
2016,05,01,17,14,23.30
2016,05,01,17,15,23.30
2016,05,01,17,16,23.20
2016,05,01,17,17,23.20
2016,05,01,17,18,23.20
2016,05,01,17,19,23.30
2016,05,01,17,20,23.30
2016,05,01,17,21,23.30
2016,05,01,17,22,23.30
2016,05,01,17,23,23.40
2016,05,01,17,24,23.40
2016,05,01,17,25,23.40
2016,05,01,17,26,23.50
2016,05,01,17,27,23.50
2016,05,01,17,28,23.50
2016,05,01,17,29,23.50
2016,05,01,17,30,23.50
2016,05,01,17,31,23.50
2016,05,01,17,32,23.50